TimeCDT,TemperatureF,Dew PointF,Humidity,Sea Level PressureIn,VisibilityMPH,Wind Direction,Wind SpeedMPH,Gust SpeedMPH,PrecipitationIn,Events,Conditions,WindDirDegrees,DateUTC
12:54 AM,71.1,59.0,66,29.89,10.0,SE,4.6,-,N/A,,Clear,130,2013-09-24 05:54:00
1:54 AM,71.1,59.0,66,29.88,10.0,SE,5.8,-,N/A,,Clear,130,2013-09-24 06:54:00
2:54 AM,70.0,60.1,71,29.89,10.0,SSE,5.8,-,N/A,,Partly Cloudy,150,2013-09-24 07:54:00
3:54 AM,70.0,62.1,76,29.88,10.0,SSE,8.1,-,N/A,,Scattered Clouds,160,2013-09-24 08:54:00
4:54 AM,72.0,64.0,76,29.89,10.0,SSE,9.2,-,N/A,,Overcast,160,2013-09-24 09:54:00
5:54 AM,70.0,64.0,81,29.89,10.0,SE,6.9,-,N/A,,Mostly Cloudy,140,2013-09-24 10:54:00
6:54 AM,70.0,64.0,81,29.88,10.0,ESE,5.8,-,N/A,,Mostly Cloudy,120,2013-09-24 11:54:00
7:18 AM,69.8,64.4,83,29.90,10.0,SE,5.8,-,N/A,,Mostly Cloudy,130,2013-09-24 12:18:00
7:41 AM,69.8,64.4,83,29.90,9.0,SE,5.8,-,N/A,,Mostly Cloudy,130,2013-09-24 12:41:00
7:54 AM,70.0,64.9,84,29.89,9.0,ESE,6.9,-,N/A,,Overcast,120,2013-09-24 12:54:00
8:54 AM,70.0,68.0,93,29.90,1.5,SSE,10.4,-,0.03,Rain,Heavy Rain,150,2013-09-24 13:54:00
9:26 AM,69.8,68.0,94,29.90,4.0,SE,6.9,-,0.49,Rain,Light Rain,140,2013-09-24 14:26:00
9:39 AM,71.6,68.0,88,29.90,8.0,Calm,Calm,-,0.49,Rain,Light Rain,0,2013-09-24 14:39:00
9:54 AM,71.1,69.1,93,29.91,8.0,SE,5.8,-,0.49,Rain,Light Rain,130,2013-09-24 14:54:00
10:54 AM,73.0,70.0,90,29.90,8.0,SE,6.9,-,0.00,,Overcast,140,2013-09-24 15:54:00
11:54 AM,73.9,70.0,87,29.89,7.0,SE,4.6,-,0.01,Rain,Light Rain,130,2013-09-24 16:54:00
12:23 PM,73.4,69.8,88,29.89,10.0,SSE,5.8,-,0.00,,Overcast,150,2013-09-24 17:23:00
12:54 PM,75.0,70.0,84,29.87,10.0,SE,8.1,-,0.00,,Overcast,140,2013-09-24 17:54:00
1:47 PM,75.2,69.8,83,29.86,10.0,SSE,9.2,-,N/A,,Overcast,150,2013-09-24 18:47:00
1:54 PM,77.0,70.0,79,29.85,10.0,South,6.9,-,N/A,,Overcast,170,2013-09-24 18:54:00
2:54 PM,78.1,70.0,76,29.83,10.0,Variable,4.6,-,N/A,,Overcast,0,2013-09-24 19:54:00
3:54 PM,80.1,70.0,71,29.82,10.0,South,4.6,-,N/A,,Mostly Cloudy,170,2013-09-24 20:54:00
4:45 PM,80.6,69.8,70,29.82,10.0,South,4.6,-,N/A,,Scattered Clouds,170,2013-09-24 21:45:00
4:54 PM,80.1,69.1,69,29.81,10.0,South,3.5,-,N/A,,Scattered Clouds,170,2013-09-24 21:54:00
5:54 PM,79.0,69.1,72,29.80,10.0,SE,6.9,-,N/A,,Scattered Clouds,140,2013-09-24 22:54:00
6:54 PM,77.0,69.1,76,29.80,10.0,SE,6.9,-,N/A,,Scattered Clouds,140,2013-09-24 23:54:00
7:54 PM,75.0,69.1,82,29.80,10.0,SE,6.9,-,N/A,,Partly Cloudy,130,2013-09-25 00:54:00
8:54 PM,73.0,69.1,87,29.81,10.0,SE,4.6,-,N/A,,Partly Cloudy,130,2013-09-25 01:54:00
9:54 PM,73.0,69.1,87,29.81,10.0,ESE,4.6,-,N/A,,Partly Cloudy,120,2013-09-25 02:54:00
10:54 PM,72.0,69.1,91,29.80,10.0,SE,6.9,-,N/A,,Partly Cloudy,130,2013-09-25 03:54:00
11:12 PM,71.6,69.8,94,29.81,10.0,SE,5.8,-,N/A,,Partly Cloudy,140,2013-09-25 04:12:00
11:19 PM,71.6,68.0,88,29.81,10.0,SE,5.8,-,N/A,,Mostly Cloudy,140,2013-09-25 04:19:00
11:23 PM,71.6,68.0,88,29.81,2.5,SE,5.8,-,N/A,,Overcast,140,2013-09-25 04:23:00
11:45 PM,71.6,68.0,88,29.81,0.5,SSE,9.2,-,N/A,,Overcast,160,2013-09-25 04:45:00
11:54 PM,71.1,68.0,90,29.80,0.5,SSE,6.9,-,N/A,,Overcast,150,2013-09-25 04:54:00